User: anonymous   Login
Location: Unspecified
(0.0000°N, 0.0000°E)
Time: 20:07:07
(UTC+00:00)
Language:

GEESAT 2-04 - Orbit

View from above orbital plane
View from above orbital plane
View from above satellite
View from above satellite

Ground track
Ground track

The orbit is defined by the following mean orbital elements,

1 58908U          26145.59369105 +.00000000 +00000-0 +20430-3 0 00001
2 58908  49.9926  70.2094 0006450 311.9627  48.0767 14.97050965    05
Epoch (UTC): 25 May 2026 14:14:54
Eccentricity: 0.0006450
inclination: 49.9926°
perigee height: 572 km
apogee height: 580 km
right ascension of ascending node: 70.2094°
argument of perigee: 311.9627°
revolutions per day: 14.97050965
mean anomaly at epoch: 48.0767°

The dashed part of the orbit path shows where the satellite is in the earth's shadow,  

DLR